Faro, Portugal

9:05 AM WET on November 21, 2019 (GMT +0000)
Faro

Weather History for LPFR - September, 2019

Change the Weather History Date:

Friday, September 27, 2019

  Actual Average Record
Temperature  
Mean Temperature 70 °F -  
Max Temperature 78 °F 72 °F 85 °F (2016)
Min Temperature 63 °F 58 °F 59 °F (2010)
Cooling Degree Days 6    
Growing Degree Days 20 (Base 50)    
Moisture  
Dew Point 59 °F    
Average Humidity 64    
Maximum Humidity 88    
Minimum Humidity 29    
Precipitation  
Precipitation 0.00 in 0.08 in - ()
Sea Level Pressure  
Sea Level Pressure 30.07 in    
Wind  
Wind Speed 3 mph ()    
Max Wind Speed 8 mph    
Max Gust Speed -    
Visibility 13.7 miles    
Events      
Averages and records for this station are not official NWS values.
T = Trace of Precipitation, MM = Missing Value Source: Averaged Metar Reports

Daily Weather History Graph

Daily Weather History Graph

Search for Another Location

Airport or City:

Astronomy

Sep. 27, 2019 Rise Set
Actual Time 7:23 AM WEST 7:21 PM WEST
Civil Twilight 6:57 AM WEST 7:47 PM WEST
Nautical Twilight 6:27 AM WEST 8:17 PM WEST
Astronomical Twilight 5:56 AM WEST 8:48 PM WEST
Moon 5:32 AM WEST (9/27) 7:00 PM WEST (9/27)
Length of Visible Light 12h 50m
Length of Day
11h 58m
Waning Crescent, 3% of the Moon is Illuminated
Sep 27
Waning Crescent
Sep 28
New
Oct 5
First Quarter
Oct 13
Full
Oct 21
Last Quarter

Hourly Weather History & Observations

Time (WEST) Temp. Dew Point Humidity Pressure Visibility Wind Dir Wind Speed Gust Speed Precip Events Conditions
12:00 AM 68 °F 60 °F 68% 30.10 in - NW 2.2 mph - -  
12:00 AM 68.0 °F 60.8 °F 78% 30.06 in - WNW 3.5 mph - N/A   Clear
12:30 AM 68.0 °F 59.0 °F 73% 30.06 in - WNW 2.3 mph - N/A   Clear
1:00 AM 68 °F 60 °F 68% 30.10 in 12 mi Calm Calm - -   Clear
1:00 AM 66.2 °F 60.8 °F 83% 30.06 in - Calm Calm - N/A   Clear
1:30 AM 66.2 °F 62.6 °F 88% 30.06 in - SE 2.3 mph - N/A   Clear
2:00 AM 68 °F 61 °F 71% 30.10 in - Calm Calm - -  
2:00 AM 68.0 °F 60.8 °F 78% 30.06 in - Variable 2.3 mph - N/A   Clear
2:30 AM 68.0 °F 60.8 °F 78% 30.06 in - Calm Calm - N/A   Clear
3:00 AM 68 °F 59 °F 64% 30.09 in - Calm Calm - -  
3:00 AM 66.2 °F 60.8 °F 83% 30.06 in - Calm Calm - N/A   Clear
3:30 AM 66.2 °F 59.0 °F 78% 30.06 in - Calm Calm - N/A   Clear
4:00 AM 67 °F 57 °F 62% 30.08 in - West 2.2 mph - -  
4:00 AM 66.2 °F 57.2 °F 73% 30.06 in - West 2.3 mph - N/A   Clear
4:30 AM 66.2 °F 57.2 °F 73% 30.06 in - Calm Calm - N/A   Clear
5:00 AM 66 °F 56 °F 61% 30.08 in - Calm Calm - -  
5:00 AM 66.2 °F 55.4 °F 68% 30.06 in - Calm Calm - N/A   Clear
5:30 AM 64.4 °F 55.4 °F 73% 30.06 in - Variable 2.3 mph - N/A   Clear
6:00 AM 64 °F 55 °F 65% 30.08 in - West 2.2 mph - -  
6:00 AM 62.6 °F 55.4 °F 77% 30.06 in - WSW 2.3 mph - N/A   Clear
6:30 AM 64.4 °F 60.8 °F 88% 30.06 in - SSW 3.5 mph - N/A   Clear
7:00 AM 65 °F 56 °F 66% 30.09 in 16 mi East 2.2 mph - -   Clear
7:00 AM 64.4 °F 59.0 °F 83% 30.06 in - Calm Calm - N/A   Clear
7:30 AM 64.4 °F 57.2 °F 77% 30.06 in - Calm Calm - N/A   Clear
8:00 AM 67 °F 60 °F 72% 30.10 in - Calm Calm - -  
8:00 AM 66.2 °F 60.8 °F 83% 30.06 in - South 2.3 mph - N/A   Clear
8:30 AM 66.2 °F 57.2 °F 73% 30.06 in - SW 3.5 mph - N/A   Clear
9:00 AM 72 °F 53 °F 40% 30.11 in - West 2.2 mph - -  
9:00 AM 69.8 °F 55.4 °F 60% 30.06 in - West 3.5 mph - N/A   Clear
9:30 AM 75.2 °F 51.8 °F 44% 30.09 in - Variable 2.3 mph - N/A   Clear
10:00 AM 76 °F 52 °F 32% 30.12 in 16 mi SSW 4.5 mph - -   Clear
10:00 AM 77.0 °F 53.6 °F 44% 30.09 in - SSW 3.5 mph - N/A   Clear
10:30 AM 73.4 °F 51.8 °F 47% 30.09 in - SW 6.9 mph - N/A   Clear
11:00 AM 76 °F 55 °F 38% 30.13 in - SW 4.5 mph - -  
11:00 AM 75.2 °F 55.4 °F 50% 30.09 in - SSW 5.8 mph - N/A   Clear
11:30 AM 75.2 °F 53.6 °F 47% 30.09 in - SSW 4.6 mph - N/A   Clear
12:00 PM 77.0 °F 53.6 °F 44% 30.09 in - South 5.8 mph - N/A   Clear
12:30 PM 75.2 °F 51.8 °F 44% 30.09 in - SSW 6.9 mph - N/A   Clear
1:00 PM 77 °F 51 °F 29% 30.12 in 16 mi South 6.7 mph - -   Clear
1:00 PM 78.8 °F 50.0 °F 36% 30.09 in - South 6.9 mph - N/A   Clear
1:30 PM 77.0 °F 53.6 °F 44% 30.09 in - SSE 8.1 mph - N/A   Clear
2:00 PM 76 °F 60 °F 48% 30.11 in - North 6.7 mph - -  
2:00 PM 75.2 °F 60.8 °F 61% 30.09 in - South 6.9 mph - N/A   Clear
2:30 PM 73.4 °F 60.8 °F 65% 30.06 in - SSE 5.8 mph - N/A   Clear
3:00 PM 74 °F 60 °F 53% 30.09 in - South 6.7 mph - -  
3:00 PM 73.4 °F 60.8 °F 65% 30.06 in - South 6.9 mph - N/A   Clear
3:30 PM 75.2 °F 60.8 °F 61% 30.06 in - South 6.9 mph - N/A   Clear
4:00 PM 74 °F 60 °F 53% 30.09 in 12 mi SW 6.7 mph - -   Clear
4:00 PM 73.4 °F 62.6 °F 69% 30.06 in - SSW 8.1 mph - N/A   Clear
4:30 PM 73.4 °F 60.8 °F 65% 30.06 in - SSW 6.9 mph - N/A   Clear
5:00 PM 76 °F 60 °F 47% 30.07 in - SW 4.5 mph - -  
5:00 PM 75.2 °F 60.8 °F 61% 30.04 in - SSW 6.9 mph - N/A   Clear
5:30 PM 75.2 °F 60.8 °F 61% 30.04 in - SSW 5.8 mph - N/A   Clear
6:00 PM 75 °F 63 °F 57% 30.07 in - SSW 4.5 mph - -  
6:30 PM 75.2 °F 64.4 °F 69% 30.04 in - South 4.6 mph - N/A   Clear
7:00 PM 72 °F 64 °F 69% 30.07 in 12 mi SSW 4.5 mph - -   Clear
7:00 PM 73.4 °F 64.4 °F 73% 30.04 in - SSW 4.6 mph - N/A   Clear
7:30 PM 71.6 °F 64.4 °F 78% 30.04 in - SSE 4.6 mph - N/A   Clear
8:00 PM 71 °F 64 °F 71% 30.07 in - North 2.2 mph - -  
8:00 PM 69.8 °F 64.4 °F 83% 30.04 in - SSW 3.5 mph - N/A   Clear
8:30 PM 69.8 °F 64.4 °F 83% 30.04 in - Variable 1.2 mph - N/A   Clear
9:00 PM 72 °F 62 °F 63% 30.08 in - North 4.5 mph - -  
9:00 PM 71.6 °F 62.6 °F 73% 30.06 in - NNW 5.8 mph - N/A   Clear
9:30 PM 69.8 °F 62.6 °F 78% 30.06 in - NW 5.8 mph - N/A   Clear
10:00 PM 70 °F 61 °F 65% 30.09 in 12 mi WNW 4.5 mph - -   Clear
10:30 PM 66.2 °F 60.8 °F 83% 30.06 in - West 3.5 mph - N/A   Clear
11:00 PM 75.2 °F 53.6 °F 47% 30.06 in - Variable 2.3 mph - N/A   Clear
11:30 PM 77.0 °F 55.4 °F 47% 30.06 in - Variable 2.3 mph - N/A   Clear